Location: Guayaquil
(2.1667°S, 79.9000°W)
Time: 23:50:11
(UTC-05:00)

Envisat - Pass Details

Date: 08 August 2020
Orbit: 764 x 766 km, 98.1° (Epoch: 26 September)

Event Time Altitude Azimuth Distance (km) Brightness Sun altitude
Rises 05:06:41 0° 44° (NE) 3,216 7.3 -19.5°
Reaches altitude 10° 05:09:48 10° 64° (ENE) 2,294 6.7 -18.7°
Maximum altitude 05:12:56 17° 103° (ESE) 1,879 5.8 -18.0°
Drops below altitude 10° 05:16:04 10° 142° (SE) 2,300 5.7 -17.2°
Sets 05:19:10 0° 162° (SSE) 3,229 6.3 -16.5°
